• în Republica Moldova
  • Lista ţărilor
  • Pe 7 zile
  • Temperatura apei
  • Hartă satelitară
  • Meteo pe hartă
  • Widget-uri
  • user-avatar
    Intrare

    Meteo pe oră la Shusha

    Astăzi, 21 Ianuarie, Sâmbătă

    Timp Temperatura Precipitaţii Vânt Presiune Umiditate
    00:00 -6°C° 0 mm 0 m/s 660 mmHg 92%
    01:00 -6°C° 0 mm 0 m/s 660 mmHg 92%
    02:00 -6°C° 0 mm 0 m/s 660 mmHg 92%
    03:00 -6°C° 0 mm 0 m/s 659 mmHg 90%
    04:00 -6°C° 0 mm 0 m/s 659 mmHg 90%
    05:00 -6°C° 0 mm 0 m/s 659 mmHg 90%
    06:00 -7°C° 0 mm 0 m/s 659 mmHg 90%
    07:00 -5°C° 0 mm 0 m/s 660 mmHg 84%
    08:00 -4°C° 0 mm 0 m/s 660 mmHg 78%
    09:00 -1°C° 0 mm 1 m/s 661 mmHg 70%
    10:00 0°C° 0 mm 1 m/s 661 mmHg 65%
    11:00 +1°C° 0 mm 1 m/s 661 mmHg 61%
    12:00 +2°C° 0 mm 1 m/s 661 mmHg 57%
    13:00 +2°C° 0 mm 1 m/s 661 mmHg 58%
    14:00 +1°C° 0 mm 2 m/s 661 mmHg 60%
    15:00 +1°C° 0 mm 2 m/s 660 mmHg 61%
    16:00 0°C° 0 mm 1 m/s 660 mmHg 68%
    17:00 -2°C° 0 mm 1 m/s 660 mmHg 76%
    18:00 -5°C° 0 mm 0 m/s 659 mmHg 83%
    19:00 -5°C° 0 mm 0 m/s 659 mmHg 84%
    20:00 -6°C° 0 mm 0 m/s 659 mmHg 84%
    21:00 -6°C° 0 mm 0 m/s 659 mmHg 85%
    22:00 -6°C° 0 mm 0 m/s 659 mmHg 84%
    23:00 -6°C° 0 mm 1 m/s 659 mmHg 83%

    Mâine, 22 Ianuarie, Duminică

    Timp Temperatura Precipitaţii Vânt Presiune Umiditate
    00:00 -6°C° 0 mm 1 m/s 659 mmHg 82%
    01:00 -6°C° 0 mm 1 m/s 659 mmHg 81%
    02:00 -6°C° 0 mm 1 m/s 659 mmHg 80%
    03:00 -6°C° 0 mm 1 m/s 659 mmHg 80%
    04:00 -7°C° 0 mm 1 m/s 659 mmHg 79%
    05:00 -7°C° 0 mm 1 m/s 659 mmHg 78%
    06:00 -7°C° 0 mm 1 m/s 659 mmHg 77%
    07:00 -4°C° 0 mm 1 m/s 659 mmHg 73%
    08:00 -3°C° 0 mm 1 m/s 660 mmHg 68%
    09:00 -2°C° 0 mm 1 m/s 660 mmHg 64%
    10:00 -1°C° 0 mm 1 m/s 660 mmHg 60%
    11:00 0°C° 0 mm 1 m/s 660 mmHg 56%
    12:00 +1°C° 0 mm 1 m/s 661 mmHg 51%
    13:00 +1°C° 0 mm 2 m/s 661 mmHg 53%
    14:00 +1°C° 0 mm 2 m/s 660 mmHg 54%
    15:00 +1°C° 0 mm 2 m/s 660 mmHg 55%
    16:00 -2°C° 0 mm 2 m/s 661 mmHg 62%
    17:00 -1°C° 0 mm 1 m/s 661 mmHg 69%
    18:00 -3°C° 0 mm 1 m/s 661 mmHg 76%
    19:00 -3°C° 0 mm 1 m/s 662 mmHg 76%
    20:00 -3°C° 0 mm 1 m/s 662 mmHg 76%
    21:00 -3°C° 0 mm 1 m/s 663 mmHg 77%
    22:00 -4°C° 0 mm 1 m/s 663 mmHg 77%
    23:00 -4°C° 0 mm 1 m/s 664 mmHg 77%

    Poimâine, 23 Ianuarie, Luni

    Timp Temperatura Precipitaţii Vânt Presiune Umiditate
    00:00 -4°C° 0 mm 1 m/s 664 mmHg 77%
    01:00 -6°C° 0 mm 1 m/s 664 mmHg 78%
    02:00 -6°C° 0 mm 1 m/s 664 mmHg 80%
    03:00 -7°C° 0 mm 1 m/s 664 mmHg 81%
    04:00 -7°C° 0 mm 1 m/s 664 mmHg 79%
    05:00 -7°C° 0 mm 1 m/s 664 mmHg 77%
    06:00 -7°C° 0 mm 1 m/s 664 mmHg 75%
    07:00 -6°C° 0 mm 1 m/s 665 mmHg 71%
    08:00 -3°C° 0 mm 1 m/s 666 mmHg 67%
    09:00 -2°C° 0 mm 1 m/s 666 mmHg 62%
    10:00 -1°C° 0 mm 1 m/s 666 mmHg 58%
    11:00 0°C° 0 mm 1 m/s 666 mmHg 54%
    12:00 +2°C° 0 mm 1 m/s 666 mmHg 50%
    13:00 +2°C° 0 mm 1 m/s 666 mmHg 52%
    14:00 +2°C° 0 mm 1 m/s 666 mmHg 53%
    15:00 +2°C° 0 mm 1 m/s 665 mmHg 55%
    16:00 0°C° 0 mm 1 m/s 665 mmHg 63%
    17:00 -2°C° 0 mm 1 m/s 665 mmHg 71%
    18:00 -5°C° 0 mm 0 m/s 664 mmHg 79%
    19:00 -6°C° 0 mm 0 m/s 664 mmHg 78%
    20:00 -6°C° 0 mm 1 m/s 664 mmHg 77%
    21:00 -6°C° 0 mm 1 m/s 665 mmHg 76%
    22:00 -6°C° 0 mm 1 m/s 665 mmHg 76%
    23:00 -6°C° 0 mm 0 m/s 665 mmHg 76%

    24 Ianuarie, Marţi

    Timp Temperatura Precipitaţii Vânt Presiune Umiditate
    00:00 -6°C° 0 mm 0 m/s 665 mmHg 76%
    01:00 -7°C° 0 mm 0 m/s 665 mmHg 77%
    02:00 -7°C° 0 mm 0 m/s 665 mmHg 77%
    03:00 -7°C° 0 mm 0 m/s 664 mmHg 78%
    04:00 -7°C° 0 mm 0 m/s 664 mmHg 78%
    05:00 -7°C° 0 mm 0 m/s 664 mmHg 78%
    06:00 -7°C° 0 mm 0 m/s 664 mmHg 78%
    07:00 -6°C° 0 mm 0 m/s 665 mmHg 72%
    08:00 -4°C° 0 mm 0 m/s 666 mmHg 65%
    09:00 -1°C° 0 mm 1 m/s 667 mmHg 59%
    10:00 +1°C° 0 mm 1 m/s 667 mmHg 55%
    11:00 +2°C° 0 mm 1 m/s 667 mmHg 51%
    12:00 +3°C° 0 mm 1 m/s 667 mmHg 47%
    13:00 +3°C° 0 mm 1 m/s 666 mmHg 49%
    14:00 +3°C° 0 mm 1 m/s 665 mmHg 51%
    15:00 +3°C° 0 mm 1 m/s 665 mmHg 54%
    16:00 +1°C° 0 mm 1 m/s 664 mmHg 62%
    17:00 -1°C° 0 mm 1 m/s 664 mmHg 70%
    18:00 -3°C° 0 mm 1 m/s 663 mmHg 78%
    19:00 -3°C° 0 mm 1 m/s 663 mmHg 76%
    20:00 -3°C° 0 mm 1 m/s 663 mmHg 74%
    21:00 -4°C° 0 mm 1 m/s 663 mmHg 72%
    22:00 -4°C° 0 mm 1 m/s 662 mmHg 69%
    23:00 -6°C° 0 mm 2 m/s 662 mmHg 67%

    25 Ianuarie, Miercuri

    Timp Temperatura Precipitaţii Vânt Presiune Umiditate
    00:00 -6°C° 0 mm 2 m/s 661 mmHg 64%
    01:00 -6°C° 0 mm 2 m/s 661 mmHg 63%
    02:00 -6°C° 0 mm 2 m/s 660 mmHg 61%
    03:00 -6°C° 0 mm 2 m/s 660 mmHg 59%
    04:00 -6°C° 0 mm 2 m/s 659 mmHg 58%
    05:00 -6°C° 0 mm 2 m/s 659 mmHg 57%
    06:00 -6°C° 0 mm 2 m/s 659 mmHg 56%
    07:00 -4°C° 0 mm 2 m/s 659 mmHg 53%
    08:00 -3°C° 0 mm 2 m/s 659 mmHg 49%
    09:00 -1°C° 0 mm 2 m/s 659 mmHg 45%
    10:00 +2°C° 0 mm 2 m/s 659 mmHg 42%
    11:00 +4°C° 0 mm 2 m/s 659 mmHg 39%
    12:00 +6°C° 0 mm 1 m/s 658 mmHg 36%
    13:00 +6°C° 0 mm 1 m/s 658 mmHg 38%
    14:00 +6°C° 0 mm 1 m/s 657 mmHg 40%
    15:00 +5°C° 0 mm 2 m/s 657 mmHg 42%
    16:00 +4°C° 0 mm 1 m/s 656 mmHg 47%
    17:00 +2°C° 0 mm 1 m/s 656 mmHg 52%
    18:00 0°C° 0 mm 1 m/s 655 mmHg 57%
    19:00 -2°C° 0 mm 2 m/s 655 mmHg 58%
    20:00 -2°C° 0 mm 2 m/s 655 mmHg 59%
    21:00 -2°C° 0 mm 2 m/s 655 mmHg 60%
    22:00 -2°C° 0 mm 2 m/s 654 mmHg 62%
    23:00 -2°C° 0 mm 2 m/s 654 mmHg 64%

    26 Ianuarie, Joi

    Timp Temperatura Precipitaţii Vânt Presiune Umiditate
    00:00 -2°C° 0 mm 2 m/s 654 mmHg 66%
    01:00 -2°C° 0 mm 2 m/s 654 mmHg 67%
    02:00 -2°C° 0 mm 2 m/s 654 mmHg 68%
    03:00 -3°C° 0 mm 2 m/s 654 mmHg 69%
    04:00 -3°C° 0 mm 2 m/s 653 mmHg 70%
    05:00 -3°C° 0 mm 2 m/s 653 mmHg 71%
    06:00 -3°C° 0 mm 2 m/s 653 mmHg 72%
    07:00 -2°C° 0 mm 2 m/s 654 mmHg 68%
    08:00 +2°C° 0 mm 1 m/s 654 mmHg 63%
    09:00 +3°C° 0 mm 1 m/s 654 mmHg 59%
    10:00 +3°C° 0 mm 2 m/s 654 mmHg 55%
    11:00 +4°C° 0 mm 2 m/s 654 mmHg 50%
    12:00 +6°C° 0 mm 2 m/s 654 mmHg 46%
    13:00 +5°C° 0 mm 2 m/s 654 mmHg 47%
    14:00 +4°C° 0 mm 3 m/s 654 mmHg 48%
    15:00 +4°C° 0 mm 3 m/s 654 mmHg 49%
    16:00 +3°C° 0 mm 2 m/s 654 mmHg 56%
    17:00 +2°C° 0 mm 2 m/s 654 mmHg 63%
    18:00 +1°C° 0 mm 1 m/s 654 mmHg 70%
    19:00 +1°C° 0 mm 1 m/s 654 mmHg 72%
    20:00 +1°C° 0 mm 1 m/s 655 mmHg 74%
    21:00 0°C° 0 mm 1 m/s 655 mmHg 76%
    22:00 0°C° 0,2 mm 1 m/s 655 mmHg 78%
    23:00 0°C° 0,2 mm 1 m/s 655 mmHg 80%
    Arată mai mult